sat.trackr.live / text

‹ back to catalog

2025-274C

NORAD 66652 · 2025-274C

PAYLOAD ACTIVE UNKNOWN

§ Identity

Operator
Country
SKOR
Launch date
2025-11-26
Launch site
NSC
Launch vehicle
Mass (kg)
RCS (m²)

External: N2YO · Heavens-Above · Gunter

§ Orbital elements

Epoch: 2026-09-19T13:00:20.808000Z

Period
96.42 min
Inclination
97.7481°
Eccentricity
0.0012857
Mean motion
14.93401464 rev/d
Perigee alt
578.4 km
Apogee alt
596.3 km
Semi-major
6,965.5 km
B*
1.7726e-4
RAAN
190.2725°
Arg perigee
49.6596°
Mean anomaly
310.5744°
Rev number
4,429

§ Raw data

2025-274C1 66652U 25274C   26262.54190750  .00001807  00000+0  17726-3 0  99952 66652  97.7481 190.2725 0012857  49.6596 310.5744 14.93401464 44290

JSON: /api/v1/satellites/66652 · /tle

For live sub-satellite position, see the globe view (requires WebGL).

§ Visibility from observer

Set your observer location to see the next 7 days of passes ≥ 10°. The values pass through the URL so the page stays shareable.

No JS? Fill the form by hand. The geolocation button needs JavaScript.